Temp
17 17 18 18 18 18 18 18 18 18 18 18 18 17 17 17 17 17 17 17 17 17 17 17 17 17 17 17 17 17 17 17
17 17 17 18 18 18 18 18 18 18 18 18 17 17 17 17 17 17 17 17 17 17 17 17 17 17 17 17 17 17 17 17
17 18 17 18 18 18 18 18 18 17 18 17 17 17 17 17 17 17 17 17 17 17 17 17 17 17 17 17 17 17 17 16
18 17 18 18 18 18 18 18 17 17 17 17 17 17 17 17 17 17 17 17 17 16 16 16 16 16 16 16 16 16 16 16
18 18 18 18 18 17 17 17 17 17 17 17 17 17 17 17 17 16 16 16 16 16 16 16 15 15 15 15 15 15 14 14
18 18 18 18 17 17 18 18 17 17 17 17 17 17 17 16 16 16 16 16 16 15 15 15 15 14 14 14 14 14 13 13
18 18 17 17 17 17 17 17 17 16 16 16 16 16 16 16 16 16 16 15 15 15 14 14 14 14 14 13 13 13 14 13
18 17 17 17 17 17 17 16 15 15 15 16 16 16 15 15 15 15 15 15 15 14 14 13 13 13 13 13 13 12 12 12
17 16 17 17 17 17 16 16 15 14 14 15 16 15 15 15 15 15 15 14 13 13 13 12 11 11 11 11 11 10 10 10
15 16 16 16 16 16 15 15 15 14 14 15 16 15 15 15 15 14 13 12 13 12 12 11 10 10 10 11 10 10 9 9
15 15 16 16 17 16 13 14 15 15 15 15 15 15 15 14 13 12 12 12 11 11 10 9 9 9 9 10 10 10 8 8
15 15 16 14 15 15 14 15 14 15 15 15 14 13 13 13 12 11 11 11 10 8 8 8 8 7 8 9 8 9 8 7
16 15 16 15 14 14 14 14 14 14 13 13 13 13 12 12 11 10 10 9 8 7 7 7 8 6 8 8 9 7 7 7
15 15 16 15 15 15 15 15 13 13 13 12 12 11 11 11 10 10 9 8 8 8 6 6 6 5 6 7 10 9 7 7
14 15 16 15 15 15 14 14 12 11 11 11 11 11 11 10 10 9 9 8 7 6 5 5 6 5 4 6 8 8 6 6
15 15 15 14 14 14 14 13 13 11 11 11 11 11 10 10 10 9 8 7 6 5 5 4 4 5 5 5 4 4 5 6
14 14 14 14 14 14 14 13 12 11 11 11 11 11 10 10 9 8 7 7 6 5 4 4 4 4 4 4 3 4 4 4
15 14 14 14 14 13 13 12 12 11 11 11 11 10 10 10 9 7 6 6 5 4 4 3 3 3 3 3 3 3 3 3
14 14 13 13 13 12 12 12 11 11 10 9 9 9 8 8 7 6 6 5 5 4 3 3 3 3 3 3 2 2 2 2
13 13 12 12 12 12 11 11 11 10 9 9 9 8 8 7 7 6 6 6 4 3 3 3 2 2 2 2 2 1 1 0
Height
849 851 854 856 858 860 862 862 864 865 866 867 868 869 869 869 869 870 872 869 870 869 867 867 866 865 864 863 862 860 859 857
850 853 856 858 859 862 863 864 865 867 867 868 869 869 871 871 871 870 871 871 872 869 868 869 867 867 865 864 862 862 860 858
850 852 856 858 860 862 864 866 868 869 869 870 870 870 871 870 871 873 873 872 874 871 870 869 868 867 866 865 864 863 860 859
850 853 856 860 862 864 865 868 869 869 871 871 871 871 871 872 872 874 873 874 874 872 871 869 868 868 866 865 863 861 859 858
850 854 857 861 863 867 867 870 870 870 872 872 871 872 872 872 873 874 873 874 875 873 871 870 868 867 866 864 862 860 858 856
852 856 860 863 865 867 869 870 872 871 872 871 871 872 871 871 873 874 874 874 874 874 872 871 869 867 865 863 860 859 857 855
853 858 861 864 866 869 871 872 872 871 871 871 871 872 871 871 873 873 874 874 874 872 872 871 869 866 864 862 859 856 854 853
854 858 863 865 867 869 871 872 871 871 871 871 872 872 872 871 872 873 874 873 873 873 870 869 868 865 863 860 857 854 852 850
853 859 863 865 867 870 871 870 871 870 871 870 870 870 872 873 873 873 873 874 872 871 869 868 867 863 861 858 855 852 850 848
856 859 862 864 867 870 871 870 870 870 870 872 871 871 872 872 872 872 872 871 869 869 867 866 865 862 860 857 853 851 848 846
855 859 861 863 862 859 866 872 869 870 869 872 873 873 872 870 871 870 872 869 869 868 867 865 863 860 857 854 851 849 847 845
851 857 858 865 864 863 868 870 869 869 870 871 870 871 872 872 871 871 872 869 868 868 867 865 862 858 855 852 849 847 845 844
851 852 854 858 863 866 867 869 867 867 868 870 870 872 872 871 872 872 870 868 868 867 865 862 860 857 852 849 846 844 844 843
852 853 855 858 862 863 865 867 867 867 869 870 870 871 871 871 870 869 869 868 867 865 863 861 859 856 853 848 841 842 843 842
852 854 856 860 862 865 866 867 867 869 870 869 870 870 869 868 868 868 867 867 865 864 862 861 858 857 855 853 845 840 842 839
850 854 857 861 865 866 866 866 867 867 868 869 869 869 869 868 866 865 865 864 862 861 859 858 857 855 854 854 853 850 845 837
855 857 859 861 862 863 863 864 865 866 867 868 868 868 867 866 864 863 862 861 860 859 857 857 856 855 854 853 851 849 846 843
851 857 857 858 860 862 863 864 866 867 867 867 867 866 865 863 862 860 859 858 856 855 854 854 853 852 852 851 849 846 843 841
851 856 856 858 860 862 864 865 866 866 867 866 865 863 861 859 858 856 855 854 853 852 851 851 850 849 848 847 845 844 842 840
853 856 858 859 860 862 863 864 865 865 865 864 862 860 858 856 854 853 852 851 851 849 848 848 848 845 844 843 841 840 839 837
Wind_Speed
18 17 16 15 15 15 14 14 15 16 16 16 17 15 15 14 14 12 11 12 12 13 15 15 15 15 16 16 16 16 16 17
18 16 15 14 15 14 14 14 16 15 15 15 14 13 11 11 10 9 8 8 8 9 11 12 13 13 14 15 16 15 14 13
18 17 16 15 15 14 13 13 14 13 13 12 11 10 8 8 7 6 6 6 6 8 9 10 12 12 12 13 15 16 16 13
17 17 16 15 15 14 13 13 13 11 9 9 7 6 5 4 4 4 6 7 8 8 8 10 12 13 13 13 13 13 12 13
18 16 16 14 13 13 12 11 10 8 7 6 4 3 3 3 5 6 8 7 7 7 9 12 14 14 14 14 13 13 12 12
16 14 13 12 11 11 10 9 7 5 4 4 3 4 6 8 7 7 6 7 6 8 11 13 14 15 15 15 14 13 12 13
15 13 11 10 6 5 5 5 5 5 5 3 4 6 7 8 8 7 6 5 6 8 11 13 14 14 14 14 14 14 14 13
13 12 9 7 4 1 4 7 8 7 4 3 3 5 8 8 7 6 5 7 9 10 11 12 13 15 15 16 15 13 13 14
14 11 5 5 2 4 4 9 11 9 3 3 6 8 7 6 5 5 5 5 6 8 11 13 13 15 14 14 14 12 11 10
14 16 16 18 18 10 10 15 8 5 7 6 7 7 6 3 1 1 3 5 9 12 14 14 13 13 14 15 14 12 9 3
20 21 20 14 6 8 14 7 3 8 10 9 8 6 5 4 3 5 6 10 12 14 12 12 11 11 13 12 14 12 5 3
25 21 18 9 14 3 9 9 12 12 9 5 8 5 2 3 6 9 12 15 14 12 11 11 10 11 13 10 14 9 3 4
23 22 19 7 11 16 15 15 13 9 7 8 4 2 3 9 12 13 15 13 13 14 12 12 12 14 10 14 10 5 4 7
18 14 11 15 19 18 14 12 8 8 8 6 4 4 8 10 16 15 13 10 13 15 12 9 9 10 10 11 4 7 5 14
15 15 17 17 17 14 8 8 8 7 5 2 4 5 7 11 14 9 8 9 9 9 8 8 10 9 8 6 4 4 17 11
18 21 18 19 12 8 7 2 2 2 1 2 3 8 9 12 10 9 7 8 8 7 7 7 7 8 9 6 9 13 7 8
15 16 14 11 6 4 2 4 6 7 5 4 5 9 12 14 12 10 9 9 9 8 6 5 6 7 7 8 9 11 12 13
15 11 10 7 6 7 10 10 8 6 6 7 9 13 15 16 15 13 10 8 7 6 9 6 6 6 7 8 11 12 13 14
13 11 12 11 10 9 9 7 6 5 6 8 11 12 15 18 16 14 13 11 10 11 9 8 8 8 8 9 9 10 10 12
12 10 10 8 8 7 5 3 5 7 11 14 15 18 20 20 16 14 15 15 10 12 9 10 9 8 9 10 10 10 8 9
Wind_Direction
163 161 162 163 159 156 151 143 138 132 127 127 121 118 108 104 98 93 85 83 76 66 57 49 43 38 34 35 32 30 30 27
167 165 167 166 161 161 157 148 142 137 134 134 129 119 111 98 95 95 88 72 66 63 59 45 38 27 19 13 12 12 13 15
172 172 175 170 166 165 159 152 147 143 145 138 131 125 121 115 101 87 71 54 50 58 53 36 29 27 19 9 359 353 349 349
179 179 174 172 172 168 162 157 159 156 154 153 146 137 130 116 97 91 74 67 72 60 40 35 37 28 14 5 357 342 340 334
182 177 174 172 174 171 163 163 164 168 176 178 174 159 153 126 116 108 94 82 63 48 41 31 20 16 7 358 347 341 340 336
177 174 171 173 172 169 171 175 183 173 193 207 208 173 152 139 130 109 91 74 60 43 25 12 6 2 359 359 355 351 343 333
175 174 173 171 158 178 195 210 227 230 233 225 171 162 153 141 130 112 97 72 41 19 7 357 355 355 352 351 347 343 336 329
175 175 174 167 168 184 256 264 277 279 256 197 179 168 154 140 118 90 52 25 7 357 356 352 346 342 339 337 335 337 330 321
170 155 150 163 138 57 310 320 300 277 226 166 162 154 142 112 75 47 30 15 10 356 356 348 340 338 332 331 332 335 333 328
146 140 114 113 97 48 316 304 297 216 162 156 142 132 116 106 86 59 26 4 1 353 351 344 337 337 332 329 329 331 336 12
139 136 128 121 139 329 293 248 185 150 132 129 123 132 159 162 113 47 13 7 1 354 347 341 331 333 329 320 324 319 319 348
144 134 131 356 282 309 175 170 154 136 136 162 177 169 117 57 36 24 11 3 357 356 350 341 332 338 328 310 315 292 233 339
143 156 175 245 199 166 158 158 153 163 171 161 147 125 63 39 31 6 357 4 6 358 350 344 342 343 330 325 313 224 265 322
163 174 184 174 175 170 171 180 184 173 162 159 142 73 45 33 8 5 8 11 359 354 356 350 337 349 341 319 317 291 296 322
168 167 161 168 175 189 188 167 159 165 165 121 51 31 10 2 5 4 355 348 354 358 356 351 337 337 360 337 315 300 322 309
160 170 175 180 196 197 187 187 174 176 221 37 12 4 342 341 344 332 325 336 343 348 342 337 337 324 325 311 307 301 306 307
135 150 158 164 177 164 134 76 81 83 64 5 342 338 333 329 314 298 296 307 325 334 330 313 313 309 304 307 307 304 299 300
147 161 142 123 101 84 76 72 72 49 5 336 319 320 315 313 299 280 272 278 287 305 305 276 275 279 284 292 303 310 311 311
136 134 113 104 90 77 67 57 39 2 334 320 309 305 305 301 294 271 261 264 271 305 276 277 277 282 292 302 298 300 298 306
124 121 115 105 94 101 71 25 328 316 316 315 309 304 300 300 289 269 271 273 277 301 283 287 276 285 293 304 301 299 288 294